Waarnemingen

Advertentie
Mijn weer
K14A, Nederland (6204): temperatuur & dauwpunt: 18.02.2017 16:00:00 - 24.02.2017 16:00:00 (CET)K14A, Nederland (6204): windsnelheid & windstoten: 18.02.2017 16:00:00 - 24.02.2017 16:00:00 (CET)K14A, Nederland (6204): windrichting: 18.02.2017 16:00:00 - 24.02.2017 16:00:00 (CET)K14A, Nederland (6204): luchtdruk: 18.02.2017 16:00:00 - 24.02.2017 16:00:00 (CET)K14A, Nederland (6204): zicht: 18.02.2017 16:00:00 - 24.02.2017 16:00:00 (CET)
Datum & Tijd tt [°C] td [°C] ff [km/u] ff [kn] fx [km/u] fx [kn] dd ppp [hPa] vv [km]
24.02.2017 16:00:00 5,9 2,4 24 13 29 16 - 1016,0 10
24.02.2017 15:00:00 5,8 2,5 16 9 32 18 - 1015,4 10
24.02.2017 14:00:00 5,7 1,3 24 13 32 18 - 1015,0 10
24.02.2017 13:00:00 5,4 2,6 22 12 32 18 - 1014,4 10
24.02.2017 12:00:00 5,3 1,6 22 12 36 19 - 1014,0 10
24.02.2017 11:00:00 5,9 1,3 22 12 29 16 W 1012,8 10
24.02.2017 10:00:00 5,7 0,3 22 12 29 16 - 1011,8 10
24.02.2017 09:00:00 5,6 0,2 22 12 29 16 - 1010,7 10
24.02.2017 08:00:00 5,6 -0,3 29 16 32 18 NW 1009,6 10
24.02.2017 07:00:00 5,7 -0,4 35 19 36 19 WNW 1008,7 10
24.02.2017 06:00:00 5,7 -1,0 37 20 40 21 NW 1007,5 10
24.02.2017 05:00:00 5,0 -0,5 42 23 54 29 NW 1006,2 10
24.02.2017 04:00:00 4,0 0,4 54 29 61 33 WNW 1005,3 10
24.02.2017 03:00:00 5,5 1,4 46 25 50 27 WNW 1004,1 10
24.02.2017 02:00:00 4,9 0,5 57 31 61 33 NW 1002,6 10
24.02.2017 01:00:00 5,1 0,8 67 36 68 37 NW 1000,3 10
24.02.2017 00:00:00 5,7 0,6 54 29 76 41 NW 998,3 10
23.02.2017 23:00:00 5,6 0,9 61 33 79 43 NNW 996,5 10
23.02.2017 22:00:00 5,1 2,0 78 42 90 49 NNW 993,4 10
23.02.2017 21:00:00 5,1 2,9 83 45 90 49 NNW 987,7 10
23.02.2017 20:00:00 6,4 4,7 55 30 68 37 W 983,9 8
23.02.2017 19:00:00 6,4 4,4 68 37 90 49 W 983,3 7
23.02.2017 18:00:00 6,5 3,9 93 50 97 53 W 982,9 8
23.02.2017 17:00:00 6,0 5,8 87 47 97 53 W 980,6 5
23.02.2017 16:00:00 5,1 4,3 78 42 101 54 WZW 979,0 6
23.02.2017 15:00:00 7,2 3,5 72 39 86 47 WZW 979,9 7
23.02.2017 14:00:00 8,0 3,9 67 36 90 49 ZW 980,9 10
23.02.2017 13:00:00 8,5 5,4 74 40 83 45 ZZW 982,5 10
23.02.2017 12:00:00 8,6 6,9 80 43 83 45 ZZW 983,3 10
23.02.2017 11:00:00 8,5 7,1 76 41 79 43 ZZW 985,5 10
23.02.2017 10:00:00 8,5 7,2 68 37 76 41 ZZW 987,9 10
23.02.2017 09:00:00 8,3 7,3 67 36 68 37 ZZW 990,5 10
23.02.2017 08:00:00 8,1 7,5 57 31 58 31 ZZW 991,6 7
23.02.2017 07:00:00 6,4 5,8 28 15 36 19 ZZO 994,1 9
23.02.2017 06:00:00 7,0 5,7 22 12 22 12 Z 996,3 10
23.02.2017 05:00:00 6,8 5,8 24 13 25 14 Z 997,8 10
23.02.2017 04:00:00 6,7 5,5 26 14 29 16 ZW 999,1 10
23.02.2017 03:00:00 7,1 4,9 34 18 36 19 W 1000,5 10
23.02.2017 02:00:00 7,2 4,8 37 20 36 19 WZW 1001,8 10
23.02.2017 01:00:00 7,2 4,2 39 21 40 21 W 1002,5 10
23.02.2017 00:00:00 7,6 4,3 39 21 43 23 W 1002,7 10
22.02.2017 23:00:00 7,8 3,9 42 23 47 25 W 1003,0 10
22.02.2017 22:00:00 7,8 3,4 37 20 43 23 W 1003,5 10
22.02.2017 21:00:00 7,9 4,2 48 26 47 25 W 1003,1 10
22.02.2017 20:00:00 8,2 4,0 48 26 47 25 W 1003,3 10
22.02.2017 19:00:00 8,0 4,3 48 26 50 27 W 1003,0 10
22.02.2017 18:00:00 8,2 4,9 48 26 47 25 W 1002,7 10
22.02.2017 17:00:00 7,8 5,8 50 27 50 27 W 1002,7 10
22.02.2017 16:00:00 7,6 6,2 41 22 50 27 WZW 1002,8 10
22.02.2017 15:00:00 8,2 4,4 54 29 58 31 W 1002,8 10
22.02.2017 14:00:00 8,2 4,7 46 25 54 29 W 1003,0 10
22.02.2017 13:00:00 7,7 5,1 48 26 50 27 W 1003,1 10
22.02.2017 12:00:00 7,9 3,9 44 24 54 29 W 1003,3 10
22.02.2017 11:00:00 8,1 4,2 48 26 54 29 W 1003,4 10
22.02.2017 10:00:00 8,6 5,5 57 31 58 31 W 1003,0 10
22.02.2017 09:00:00 8,7 6,5 59 32 65 35 W 1002,7 10
22.02.2017 08:00:00 9,2 7,4 63 34 68 37 W 1002,7 10
22.02.2017 07:00:00 9,0 7,7 68 37 68 37 WZW 1001,9 10
22.02.2017 06:00:00 9,2 7,3 68 37 68 37 WZW 1001,6 10
22.02.2017 05:00:00 9,4 7,2 74 40 72 39 WZW 1001,8 10
22.02.2017 04:00:00 9,3 7,2 74 40 72 39 WZW 1002,1 9
22.02.2017 03:00:00 8,8 6,9 68 37 76 41 WZW 1002,6 10
22.02.2017 02:00:00 9,0 6,8 68 37 68 37 WZW 1002,8 10
22.02.2017 01:00:00 9,2 7,0 68 37 68 37 ZW 1003,4 10
22.02.2017 00:00:00 9,2 7,5 67 36 65 35 ZW 1004,1 10
21.02.2017 23:00:00 8,8 7,7 63 34 61 33 ZW 1004,7 9
21.02.2017 22:00:00 8,6 8,0 61 33 61 33 ZZW 1005,8 7
21.02.2017 21:00:00 8,4 7,7 57 31 58 31 ZZW 1007,0 8
21.02.2017 20:00:00 8,2 7,3 50 27 50 27 ZZW 1008,3 10
21.02.2017 19:00:00 7,8 6,6 44 24 47 25 Z 1009,3 10
21.02.2017 18:00:00 7,3 5,3 39 21 36 19 ZZW 1010,8 10
21.02.2017 17:00:00 7,1 4,9 31 17 32 18 WZW 1011,8 10
21.02.2017 16:00:00 7,1 5,1 31 17 32 18 WZW 1012,8 10
21.02.2017 15:00:00 7,0 5,0 35 19 32 18 W 1013,7 10
21.02.2017 14:00:00 7,3 5,0 37 20 40 21 W 1014,2 10
21.02.2017 13:00:00 7,2 5,1 41 22 40 21 W 1014,9 10
21.02.2017 12:00:00 7,0 5,1 35 19 36 19 W 1014,9 10
21.02.2017 11:00:00 7,0 5,1 35 19 40 21 W 1014,9 10
21.02.2017 10:00:00 7,1 5,0 35 19 40 21 W 1014,5 10
21.02.2017 09:00:00 7,1 5,3 35 19 40 21 W 1014,3 10
21.02.2017 08:00:00 7,2 5,5 39 21 47 25 W 1013,5 10
21.02.2017 07:00:00 7,5 5,7 41 22 47 25 W 1013,0 10
21.02.2017 06:00:00 7,6 5,2 42 23 47 25 W 1012,8 10
21.02.2017 05:00:00 7,6 5,1 42 23 50 27 WNW 1012,7 10
21.02.2017 04:00:00 7,7 5,5 42 23 47 25 W 1012,7 10
21.02.2017 03:00:00 8,0 5,8 41 22 47 25 W 1013,0 10
21.02.2017 02:00:00 8,0 6,2 39 21 43 23 W 1012,8 10
21.02.2017 01:00:00 7,9 5,6 41 22 47 25 W 1013,0 10
21.02.2017 00:00:00 8,2 6,5 41 22 47 25 W 1012,9 10
20.02.2017 23:00:00 8,3 6,9 48 26 58 31 W 1012,8 10
20.02.2017 22:00:00 8,6 7,1 52 28 58 31 W 1012,9 10
20.02.2017 21:00:00 9,3 7,4 59 32 58 31 W 1012,5 10
20.02.2017 20:00:00 9,8 7,7 63 34 65 35 W 1012,4 10
20.02.2017 19:00:00 10,1 8,0 63 34 68 37 W 1012,3 10
20.02.2017 18:00:00 10,8 8,1 74 40 72 39 W 1011,4 10
20.02.2017 17:00:00 10,2 7,7 72 39 72 39 W 1011,1 10
20.02.2017 16:00:00 9,2 7,6 63 34 65 35 W 1010,7 10
20.02.2017 15:00:00 9,5 7,8 67 36 65 35 W 1011,3 10
20.02.2017 14:00:00 9,6 8,1 59 32 61 33 W 1011,7 10
20.02.2017 13:00:00 8,2 7,3 59 32 58 31 W 1012,5 10
20.02.2017 12:00:00 8,4 7,6 55 30 54 29 WZW 1012,5 9
20.02.2017 11:00:00 8,6 7,9 57 31 58 31 W 1013,2 9
20.02.2017 10:00:00 8,2 7,5 57 31 54 29 W 1013,2 7
20.02.2017 09:00:00 8,0 7,2 52 28 50 27 WZW 1013,7 6
20.02.2017 08:00:00 8,1 7,3 54 29 54 29 WZW 1013,6 6
20.02.2017 07:00:00 8,0 7,1 54 29 54 29 WZW 1013,5 6
20.02.2017 06:00:00 8,3 7,3 52 28 54 29 WZW 1013,9 7
20.02.2017 05:00:00 8,1 7,0 54 29 54 29 WZW 1014,2 8
20.02.2017 04:00:00 8,1 6,8 52 28 50 27 WZW 1015,1 10
20.02.2017 03:00:00 8,0 6,6 50 27 47 25 ZW 1015,7 10
20.02.2017 02:00:00 7,9 6,6 50 27 50 27 ZW 1016,5 10
20.02.2017 01:00:00 7,9 6,5 50 27 47 25 ZW 1017,0 10
20.02.2017 00:00:00 7,7 6,1 41 22 40 21 ZW 1018,0 10
19.02.2017 23:00:00 7,8 5,8 42 23 40 21 WZW 1018,4 10
19.02.2017 22:00:00 7,4 5,7 35 19 36 19 W 1018,8 10
19.02.2017 21:00:00 7,6 5,5 39 21 36 19 W 1018,9 10
19.02.2017 20:00:00 7,5 5,5 37 20 32 18 W 1019,1 10
19.02.2017 19:00:00 7,6 5,7 31 17 32 18 W 1019,3 10
19.02.2017 18:00:00 7,4 5,5 28 15 32 18 W 1018,9 10
19.02.2017 17:00:00 7,4 5,7 29 16 36 19 W 1018,9 7
19.02.2017 16:00:00 7,2 5,9 25 14 36 19 W 1019,2 18
19.02.2017 15:00:00 7,2 5,6 29 16 40 21 W 1019,3 13
19.02.2017 14:00:00 7,0 5,8 29 16 40 21 W 1019,2 10
19.02.2017 13:00:00 7,1 5,6 29 16 40 21 W 1019,2 10
19.02.2017 12:00:00 7,2 5,7 29 16 43 23 W 1019,4 9
19.02.2017 11:00:00 7,4 5,7 32 18 43 23 W 1019,2 8
19.02.2017 10:00:00 7,4 5,9 40 21 47 25 W 1018,9 7
19.02.2017 09:00:00 7,3 5,9 40 21 47 25 W 1018,7 6
19.02.2017 08:00:00 7,1 5,3 44 24 47 25 W 1018,2 8
19.02.2017 07:00:00 7,1 5,2 46 25 47 25 WZW 1017,8 6
19.02.2017 06:00:00 7,0 5,0 48 26 50 27 WZW 1018,2 8
19.02.2017 05:00:00 7,0 5,0 48 26 47 25 ZW 1018,1 8
19.02.2017 04:00:00 7,2 5,1 46 25 47 25 WZW 1018,5 8
19.02.2017 03:00:00 7,7 5,2 50 27 54 29 WZW 1019,6 9
19.02.2017 02:00:00 7,4 5,9 48 26 50 27 ZW 1019,1 6
19.02.2017 01:00:00 7,0 6,5 44 24 43 23 ZZW 1020,0 3,9
19.02.2017 00:00:00 6,2 6,1 50 27 50 27 ZZW 1020,8 0,8
18.02.2017 23:00:00 6,8 6,1 46 25 47 25 ZW 1021,4 3,2
18.02.2017 22:00:00 6,8 5,9 44 24 43 23 ZZW 1021,6 3,2
18.02.2017 21:00:00 6,4 5,2 46 25 47 25 ZZW 1021,8 5
18.02.2017 20:00:00 6,2 5,0 44 24 43 23 ZZW 1022,3 5
18.02.2017 19:00:00 6,2 4,4 39 21 43 23 ZZW 1022,7 10
18.02.2017 18:00:00 6,2 4,1 39 21 43 23 ZZW 1023,1 10
18.02.2017 17:00:00 6,4 4,6 41 22 43 23 ZZW 1023,1 10
18.02.2017 16:00:00 6,4 5,0 32 18 43 23 ZZW 1023,4 15

tt = temperatuur
td = dauwpunt
ff = windsnelheid
fx = windstoten
dd = windrichting
ppp = luchtdruk
vv = zicht

Weerstations in de omgeving